Regional Weather Roundup
Issued by NWS Wakefield, VA

Home | Current Version | Previous Version | Text Only | Print | Product List | Glossary On
Versions: 1 2 3 4 5 6 7 8 9 10 11 12 13 14 15 16 17 18 19 20 21 22 23 24 25 26 27 28 29 30 31 32 33 34 35 36 37 38 39 40 41 42 43 44 45 46 47 48 49 50
000
ASUS41 KAKQ 230310
RWRAKQ

REGIONAL WEATHER ROUNDUP
NATIONAL WEATHER SERVICE WAKEFIELD VA
1000 PM EST MON DEC 22 2014

Note: "fair" indicates few or no clouds below 12,000 feet with no
significant weather and/or obstructions to visibility. * = Denotes
station may not report precipitation (e.g., rain,snow,etc.),
thunder or fog.

VAZ042-051-052>054-056-230400-
NORTHERN VIRGINIA

CITY           SKY/WX    TMP DP  RH WIND       PRES   REMARKS
WASH NATIONAL  DRIZZLE   39  34  82 N7        30.12F
DULLES         CLOUDY    33  32  96 N5        30.12F FOG
FORT BELVOIR   CLOUDY    36  33  91 NW5       30.12F
QUANTICO       CLOUDY    36  32  85 N7        30.12F
FREDERICKSBRG* DRIZZLE   36  36 100 N7        30.09F
STAFFORD*      RAIN      34  34 100 N6        30.14F
WARRENTON      HVY RAIN  35  35 100 N3        30.11F
CULPEPER*      DRIZZLE   36  36 100 CALM      30.12F
MANASSAS*      CLOUDY    34  34 100 N8        30.11F
LEESBURG*      CLOUDY    34  34 100 N6        30.13F FOG
WINCHESTER     MIX PCPN  34  30  86 CALM      30.12F
FRONT ROYAL*   CLOUDY    32  32 100 NE3       30.11F
LURAY*         CLOUDY    34  34 100 NE3       30.10F FOG
$$

VAZ048-049-060>072-079>083-230400-
CENTRAL AND SOUTH CENTRAL VIRGINIA

CITY           SKY/WX    TMP DP  RH WIND       PRES   REMARKS
RICHMOND       LGT RAIN  37  34  89 N8        30.07F FOG
CHESTERFIELD*  CLOUDY    36  25  64 N6        30.08S
PETERSBURG*    CLOUDY    38  37  99 N7        30.07F FOG
HANOVER        CLOUDY    35  34  96 N5        30.09F FOG
TAPPAHANNOCK*  LGT RAIN  37  35  90 N5        30.07F
QUINTON*       CLOUDY    36  35  98 CALM      30.06F
CHARLOTTSVILLE CLOUDY    34  33  96 CALM      30.09F FOG
GORDONSVILLE*  CLOUDY    34  34  98 NE6       30.09F FOG
ORANGE*        CLOUDY    34  34 100 N8        30.11F FOG
LOUISA*        CLOUDY    36  34  93 N7        30.08S FOG
BUMPASS*       CLOUDY    34  33  97 N5        30.08F
FARMVILLE*     DRIZZLE   37  37 100 N8        30.10F
CREWE*         CLOUDY    34  33  95 N3        30.07F
FORT PICKETT*  CLOUDY    34  34  99 N8        30.07S
CHASE CITY*    CLOUDY    37  37 100 N5        30.05F
CLARKSVILLE*   CLOUDY    36  34  93 NW3       30.06S
SOUTH HILL*    CLOUDY    35  35  99 N9        30.11F
LAWRENCEVILLE* CLOUDY    36  36 100 CALM      30.05F
EMPORIA*       LGT SNOW  36  36 100 N7        30.06F
$$

VAZ088>098-230400-
SOUTHEAST VIRGINIA

CITY           SKY/WX    TMP DP  RH WIND       PRES   REMARKS
NORFOLK        CLOUDY    45  43  93 N10       30.01S
VIRGINIA BEACH FOG       47  45  93 NW16      30.00R VSB 1
NORFOLK NAVAL  DRIZZLE   48  43  82 N9        30.04S FOG
WEST POINT*    CLOUDY    40  38  93 NW3       30.07F
SALUDA*        CLOUDY    40  40  97 N7        30.04F
NEWPORT NEWS   LGT RAIN  45  41  86 N6        30.03F FOG
LANGLEY AFB    LGT RAIN  43  43 100 N10       30.03F FOG
FORT EUSTIS    DRIZZLE   41 N/A N/A NW8       30.03F
WILLIAMSBURG*  CLOUDY    43  41  93 N6        30.06S
HR EXEC AP*    CLOUDY    45  43  93 NW3       30.05S
FRANKLIN*      CLOUDY    39 N/A N/A N5        30.04F
WAKEFIELD      CLOUDY    39  37  92 N5        30.05F FOG
$$

VAZ020-022-025-037-045-230400-
WEST CENTRAL AND SOUTHWEST VIRGINIA

CITY           SKY/WX    TMP DP  RH WIND       PRES   REMARKS
STAUNTON*      CLOUDY    33  32  96 CALM      30.10F FOG
WAYNESBORO*    CLOUDY    32  32  99 CALM      30.07S
HOT SPRINGS VA SNOW      34  34 100 SE10      29.96S VSB<1/4
LYNCHBURG      CLOUDY    36  36 100 N7        30.09R FOG
DANVILLE       CLOUDY    36  34  92 N8        30.07F FOG
SOUTH BOSTON*  CLOUDY    35  34  95 N3        30.09R
MARTINSVILLE   CLOUDY    37  37 100 N5        30.08F FOG
ROANOKE        DRZL/FOG  36  34  92 NE6       30.09S VSB 1
BLACKSBURG     CLOUDY    35  33  96 E3        30.06S FOG
DUBLIN*        FOG       36  36 100 E5        30.04S VSB 1
MARION*        FOG       36  35  96 E8        30.01F VSB 1/2
HILLSVILLE*    FOG       36  36 100 CALM      30.00S VSB 1/4
RICHLANDS*     CLOUDY    43  37  79 SE10      29.90F
WISE*          MOCLDY    45  36  70 S9        29.87F
ABINGDON*      CLOUDY    43  39  85 E9        29.92F
$$

MDZ021>025-VAZ099-100-230400-
SOUTHERN MARYLAND AND THE DELMARVA PENINSULA

CITY           SKY/WX    TMP DP  RH WIND       PRES   REMARKS
PATUXENT RIVER CLOUDY    40  38  93 N9        30.06F FOG
BAY BRIDGE APT   N/A     37  37 100 N6        30.10F FOG
LEONARDTOWN    CLOUDY    37  36  93 N3        30.08F
DOVER          LGT RAIN  42  42 100 NW7       30.12R
GEORGETOWN     CLOUDY    44  42  93 N8        30.11R
EASTON         CLOUDY    42  42 100 NE7       30.12F FOG
CAMBRIDGE      CLOUDY    43  39  87 NE7       30.06F
SALISBURY      CLOUDY    49  45  86 NE7       30.07S
OCEAN CITY     CLOUDY    51  47  86 E10       30.07S
WALLOPS ISLAND CLOUDY    49  48  97 NE15      30.04F
ACCOMACK*      CLOUDY    52  48  87 NE10      30.02S
$$

NCZ012>017-030>032-230400-
NORTH CENTRAL AND EASTERN NORTH CAROLINA

CITY           SKY/WX    TMP DP  RH WIND       PRES   REMARKS
ROANOKE RAPIDS CLOUDY    37  36  93 N6        30.06S FOG
RALEIGH        FOG       37  35  92 N6        30.06S VSB 1/4
ELIZABETH CITY CLOUDY    52  47  83 NW7       30.01R HAZE
AHOSKIE*       LGT RAIN  39  38  97 NW3       30.06R
EDENTON*       CLOUDY    46  45  99 N8        30.02S FOG
CURRITUCK*     CLOUDY    50  48  94 W7        30.01R FOG
KILL DEVIL HLS FOG       52  52 100 W7        29.97S VSB 1/4
MANTEO         FOG       51  51 100 NW3       29.99S VSB 1
CAPE HATTERAS  FOG       49  49 100 NW7       30.00R VSB 3/4
TARBORO*       CLOUDY    40  39  96 N5        30.06F FOG
GOLDSBORO      CLOUDY    42  41  99 N6        30.03S FOG
WASHINGTON     FOG       43  43  99 N6        30.03S VSB 3/4
GREENVILLE     CLOUDY    41  41 100 NW3       30.06R FOG
NEW BERN       FOG       47  44  90 NW5       30.04R VSB 1/2
WILMINGTON     CLOUDY    44  44 100 N7        30.03S FOG
$$

VAZ048-230400-
ELSEWHERE

CITY           SKY/WX    TMP DP  RH WIND       PRES   REMARKS
HARRISBURG PA  LGT RAIN  33  33 100 N5        30.14F FOG
BALTIMORE      CLOUDY    38  36  92 N6        30.11F FOG
ANNAPOLIS      CLOUDY    39  37  92 N7        30.11F FOG
ANDREWS AFB    NOT AVBL
PHILADELPHIA   LGT RAIN  42  39  89 NE8       30.14F FOG
HENDERSON NC   CLOUDY    36  34  95 N3        30.06S FOG
GREENSBORO     LGT RAIN  35  34  96 NE8       30.04F FOG
ROCKY MOUNT    CLOUDY    40  38  93 N7        30.05F FOG
$$

VAZ100-230400-
MARINE

STATION/POSITION TIME  TEMP    WIND        PRES    WAVE   SWELL
                       AIR SEA DIR/SP/G            HT/PER HT/PER
                 (UTC) (F)     (DEG/KT/KT) (MB)    (FT/S) (FT/S)
CAPE MAY NJ      0300   46 43   60/  7/ 11 1019.1R
LEWES DE         0300   46 41   70/ 13/ 15 1019.0F
15NM E FENWICK I 0300   50 46              1017.8F   4/ 5
OCEAN-CITY-INLET 0300   50 44   40/  4/  7 1017.9S
WACHAPREAGUE VA  0300   50 42   30/ 14/ 19 1016.4R
THOMAS POINT MD  0300   39 41   10/ 14/ 15 1020.1F
GOOSES REEF MD   0300   40     VRB 14/ 16  1018.0F
COVE POINT MD    0300   39      20/ 13/ 15 1018.3F
SOLOMONS ISLAND  0300      42                N/A
BISHOPS HEAD MD  0300   40 38   20/  8/ 11 1016.9F
PINEY POINT MD   0300           10/  7/  8   N/A
POTOMAC MD       0300   41      30/ 16/ 21 1016.7F
CAMBRIDGE MD     0300   41 40   40/  5/  7 1018.3F
LEWISETTA VA     0300   41 41   10/  5/  9 1017.5F
RAPPAHANNOCK LGT 0300          360/ 20/ 24 1016.8F
STINGRAY PT      0300   42      10/ 16/ 17 1017.4F
YORK RVR RNG VA  0300   42     340/ 14/ 15 1016.3R
YORKTOWN VA      0300   42 44  320/ 10/ 11 1016.9R
JAMESTOWN VA     0300   39     350/  8/ 12   N/A
DOMINION TERM VA 0300   45     350/  3/  9 1016.6S
KIPTOPEKE VA     0300      48   50/  8/ 12   N/A
CHES BAY BRIDGE  0300   44 45  330/ 19/ 20 1015.8S
CAPE HENRY VA    0300   45     320/ 14/ 16 1014.7F
CHESAPEAKE LGHT  0200   53      70/ 27/ 28 1014.9F
WILLOUBY STN VA  0300   44     360/ 13/ 15 1016.8R
S CRANEY ISL VA  0300          350/  8/ 11 1016.2F
CAPE HENRY BUOY  0300      49                N/A     8/ 8
1ST LANDING BUOY 0300   45     320/ 14/ 17 1015.7R
CAPE CHARLES BUO 0300      46                N/A     7/ 8   5/ 8
64NM E OF VA BCH 0300   60 55  110/  4/  6 1013.7F  10/ 9  10/ 9
DUCK PIER NC     0300   51 46  310/  6/  9 1014.3R
44100 DUCK FRF   0300      51                N/A     9/ 8   2/11
44056 DUCK FRF   0300      46                N/A     8/ 9
OREGON INLET NC  0300   50 49  290/  5/  6 1015.0F
HATTERAS NC      0300   51 54  310/ 10/ 12 1015.9R
DIAMOND SHLS NC  0300   56                 1015.5S   7/ 8
CAPE LOOKOUT NC  0200   49     360/  5/  5 1015.6F
$$


USA.gov is the U.S. government's official web portal to all federal, state and local government web resources and services.